Glendive, MT

4:11 PM MST on December 11, 2017 (GMT -0700)
Dawson Community

Weather History for KGDV - August, 2012

Change the Weather History Date:

Wednesday, August 29, 2012

  Actual Average Record
Temperature  
Mean Temperature 83 °F -  
Max Temperature 98 °F 81 °F 98 °F (2012)
Min Temperature 68 °F 53 °F 46 °F (2007)
Cooling Degree Days 18    
Growing Degree Days 33 (Base 50)    
Moisture  
Dew Point 45 °F    
Average Humidity 33    
Maximum Humidity 64    
Minimum Humidity 12    
Precipitation  
Precipitation 0.00 in - - ()
Sea Level Pressure  
Sea Level Pressure 29.78 in    
Wind  
Wind Speed 10 mph (WSW)    
Max Wind Speed 23 mph    
Max Gust Speed 31 mph    
Visibility 10 miles    
Events      
Averages and records for this station are not official NWS values.
T = Trace of Precipitation, MM = Missing Value Source: NWS Daily Summary

Daily Weather History Graph

Daily Weather History Graph

Search for Another Location

Airport or City:

Trip Planner

Search our weather history database for the weather conditions in past years. The results will help you decide how hot, cold, wet, or windy it might be!

Date:

Astronomy

Aug. 29, 2012 Rise Set
Actual Time 6:15 AM MDT 7:43 PM MDT
Civil Twilight 5:43 AM MDT 8:15 PM MDT
Nautical Twilight 5:04 AM MDT 8:54 PM MDT
Astronomical Twilight 4:22 AM MDT 9:35 PM MDT
Moon 6:27 PM MDT (8/29) 4:09 AM MDT (8/29)
Length of Visible Light 14h 32m
Length of Day
13h 28m
Waxing Gibbous, 96% of the Moon is Illuminated
Aug 29
Waxing Gibbous
Aug 31
Full
Sep 8
Last Quarter
Sep 15
New
Sep 22
First Quarter

Hourly Weather History & Observations

Time (MDT) Temp. Heat Index Dew Point Humidity Pressure Visibility Wind Dir Wind Speed Gust Speed Precip Events Conditions
12:15 AM 78.8 °F - 48.2 °F 34% 29.84 in 10.0 mi Calm Calm - N/A   Clear
12:35 AM 77.0 °F - 48.2 °F 36% 29.84 in 10.0 mi SSE 3.5 mph - N/A   Clear
12:55 AM 77.0 °F - 50.0 °F 39% 29.83 in 10.0 mi SSE 8.1 mph - N/A   Clear
1:15 AM 78.8 °F - 51.8 °F 39% 29.82 in 10.0 mi South 3.5 mph - N/A   Clear
1:35 AM 78.8 °F - 53.6 °F 42% 29.82 in 10.0 mi South 9.2 mph - N/A   Clear
1:55 AM 78.8 °F - 53.6 °F 42% 29.82 in 10.0 mi South 11.5 mph - N/A   Clear
2:15 AM 77.0 °F - 53.6 °F 44% 29.82 in 10.0 mi South 8.1 mph - N/A   Clear
2:35 AM 75.2 °F - 55.4 °F 50% 29.82 in 10.0 mi SSE 6.9 mph - N/A   Clear
2:55 AM 77.0 °F - 55.4 °F 47% 29.80 in 10.0 mi SSE 8.1 mph - N/A   Clear
3:15 AM 77.0 °F - 55.4 °F 47% 29.80 in 10.0 mi South 9.2 mph - N/A   Clear
3:35 AM 77.0 °F - 55.4 °F 47% 29.79 in 10.0 mi SSE 12.7 mph 18.4 mph N/A   Clear
3:55 AM 75.2 °F - 55.4 °F 50% 29.78 in 10.0 mi SSE 10.4 mph - N/A   Clear
4:15 AM 73.4 °F - 55.4 °F 53% 29.78 in 10.0 mi SSE 10.4 mph - N/A   Clear
4:35 AM 71.6 °F - 55.4 °F 57% 29.78 in 10.0 mi South 5.8 mph - N/A   Clear
4:55 AM 71.6 °F - 55.4 °F 57% 29.77 in 10.0 mi SSE 6.9 mph - N/A   Clear
5:15 AM 69.8 °F - 55.4 °F 60% 29.77 in 10.0 mi South 4.6 mph - N/A   Clear
5:35 AM 68.0 °F - 55.4 °F 64% 29.76 in 10.0 mi SSE 3.5 mph - N/A   Clear
5:55 AM 69.8 °F - 55.4 °F 60% 29.75 in 10.0 mi SE 8.1 mph - N/A   Clear
6:15 AM 69.8 °F - 55.4 °F 60% 29.74 in 10.0 mi SE 11.5 mph - N/A   Clear
6:35 AM 71.6 °F - 57.2 °F 60% 29.73 in 10.0 mi SSE 12.7 mph - N/A   Clear
6:56 AM 69.8 °F - 57.2 °F 64% 29.73 in 10.0 mi SSE 9.2 mph - N/A   Clear
7:15 AM 71.6 °F - 59.0 °F 64% 29.73 in 10.0 mi South 10.4 mph - N/A   Clear
7:35 AM 71.6 °F - 59.0 °F 64% 29.73 in 10.0 mi South 10.4 mph - N/A   Clear
7:55 AM 73.4 °F - 59.0 °F 61% 29.73 in 10.0 mi South 10.4 mph - N/A   Clear
8:15 AM 75.2 °F - 59.0 °F 57% 29.72 in 10.0 mi South 11.5 mph - N/A   Clear
8:35 AM 77.0 °F - 59.0 °F 54% 29.72 in 10.0 mi South 15.0 mph 21.9 mph N/A   Clear
8:55 AM 78.8 °F - 57.2 °F 47% 29.73 in 10.0 mi SSW 11.5 mph - N/A   Clear
9:15 AM 80.6 °F 80.8 °F 57.2 °F 45% 29.72 in 10.0 mi South 13.8 mph - N/A   Clear
9:35 AM 82.4 °F 81.7 °F 55.4 °F 39% 29.72 in 10.0 mi South 12.7 mph - N/A   Clear
10:15 AM 87.8 °F 85.7 °F 53.6 °F 31% 29.72 in 10.0 mi SW 13.8 mph 21.9 mph N/A   Clear
10:35 AM 87.8 °F - 51.8 °F 29% 29.73 in 10.0 mi West 9.2 mph - N/A   Clear
10:55 AM 91.4 °F - 50.0 °F 24% 29.72 in 10.0 mi WSW 11.5 mph - N/A   Clear
11:15 AM 91.4 °F - 48.2 °F 23% 29.72 in 10.0 mi SW 10.4 mph - N/A   Clear
11:35 AM 93.2 °F - 48.2 °F 21% 29.71 in 10.0 mi SSW 6.9 mph - N/A   Clear
12:15 PM 98.6 °F - 42.8 °F 15% 29.72 in 10.0 mi WNW 19.6 mph 26.5 mph N/A   Clear
12:35 PM 96.8 °F - 39.2 °F 14% 29.73 in 10.0 mi WNW 13.8 mph 23.0 mph N/A   Clear
12:55 PM 96.8 °F - 39.2 °F 14% 29.73 in 10.0 mi WNW 17.3 mph 24.2 mph N/A   Clear
1:15 PM 96.8 °F - 37.4 °F 13% 29.73 in 10.0 mi NW 18.4 mph 24.2 mph N/A   Clear
1:35 PM 95.0 °F - 37.4 °F 13% 29.74 in 10.0 mi WNW 17.3 mph 23.0 mph N/A   Clear
1:55 PM 95.0 °F - 37.4 °F 13% 29.75 in 10.0 mi WNW 16.1 mph 21.9 mph N/A   Clear
2:15 PM 96.8 °F - 37.4 °F 13% 29.75 in 10.0 mi NW 16.1 mph 24.2 mph N/A   Clear
2:35 PM 95.0 °F - 37.4 °F 13% 29.75 in 10.0 mi NNW 20.7 mph 29.9 mph N/A   Clear
2:55 PM 95.0 °F - 35.6 °F 12% 29.75 in 10.0 mi NNW 23.0 mph 29.9 mph N/A   Clear
3:15 PM 93.2 °F - 35.6 °F 13% 29.76 in 10.0 mi NW 23.0 mph 27.6 mph N/A   Clear
3:55 PM 93.2 °F - 33.8 °F 12% 29.77 in 10.0 mi NW 20.7 mph 25.3 mph N/A   Clear
4:15 PM 91.4 °F - 33.8 °F 13% 29.77 in 10.0 mi NW 20.7 mph 25.3 mph N/A   Clear
4:35 PM 91.4 °F - 33.8 °F 13% 29.77 in 10.0 mi NNW 17.3 mph 27.6 mph N/A   Clear
4:55 PM 91.4 °F - 32.0 °F 12% 29.76 in 10.0 mi North 23.0 mph 31.1 mph N/A   Clear
5:15 PM 89.6 °F - 33.8 °F 14% 29.76 in 10.0 mi NNW 21.9 mph 28.8 mph N/A   Clear
5:35 PM 89.6 °F - 33.8 °F 14% 29.77 in 10.0 mi North 19.6 mph 26.5 mph N/A   Clear
5:55 PM 89.6 °F - 32.0 °F 13% 29.78 in 10.0 mi North 16.1 mph - N/A   Clear
6:15 PM 87.8 °F - 32.0 °F 14% 29.78 in 10.0 mi North 13.8 mph - N/A   Clear
6:35 PM 87.8 °F - 32.0 °F 14% 29.78 in 10.0 mi NNW 16.1 mph 24.2 mph N/A   Clear
6:55 PM 86.0 °F - 32.0 °F 14% 29.79 in 10.0 mi NNW 11.5 mph - N/A   Clear
7:15 PM 82.4 °F - 33.8 °F 17% 29.80 in 10.0 mi NNW 9.2 mph - N/A   Clear
7:35 PM 78.8 °F - 33.8 °F 20% 29.81 in 8.0 mi NNW 9.2 mph - N/A   Clear
7:55 PM 75.2 °F - 33.8 °F 22% 29.82 in 10.0 mi NW 10.4 mph - N/A   Clear
8:15 PM 73.4 °F - 33.8 °F 23% 29.83 in 10.0 mi NW 10.4 mph - N/A   Clear
8:35 PM 73.4 °F - 35.6 °F 25% 29.84 in 10.0 mi NNW 10.4 mph - N/A   Clear
8:55 PM 73.4 °F - 37.4 °F 27% 29.85 in 10.0 mi NNW 12.7 mph - N/A   Clear
9:15 PM 75.2 °F - 39.2 °F 27% 29.86 in 10.0 mi North 13.8 mph - N/A   Clear
9:35 PM 73.4 °F - 39.2 °F 29% 29.86 in 10.0 mi NNW 12.7 mph 20.7 mph N/A   Clear
9:55 PM 73.4 °F - 39.2 °F 29% 29.86 in 10.0 mi NNW 17.3 mph - N/A   Clear
10:55 PM 73.4 °F - 37.4 °F 27% 29.87 in 10.0 mi North 17.3 mph 23.0 mph N/A   Clear
11:15 PM 73.4 °F - 37.4 °F 27% 29.87 in 10.0 mi North 13.8 mph 23.0 mph N/A   Clear
11:35 PM 71.6 °F - 37.4 °F 29% 29.88 in 10.0 mi NNE 15.0 mph - N/A   Clear